Location: Newark
(42.7133°N, 87.7910°W)
Time: 11:35:18
(UTC+00:00)

A-11 Canister half - Pass Details

Date: 27 September 2019
Orbit: 1527 x 1682 km, 47.3° (Epoch: 15 October)

Event Time Altitude Azimuth Distance (km) Brightness Sun altitude
Exits shadow 07:54:27 59° 109° (ESE) 1,749 9.2 -39.4°
Drops below altitude 10° 08:02:28 10° 67° (ENE) 3,771 11.7 -38.3°
Sets 08:05:36 0° 65° (ENE) 4,778 12.5 -37.9°
